TimeCST,TemperatureF,Dew PointF,Humidity,Sea Level PressureIn,VisibilityMPH,Wind Direction,Wind SpeedMPH,Gust SpeedMPH,PrecipitationIn,Events,Conditions,WindDirDegrees,DateUTC
12:16 AM,33.8,24.8,70,30.32,10.0,NNE,8.1,16.1,N/A,,Clear,20,2012-11-27 06:16:00
12:35 AM,33.8,24.8,70,30.32,10.0,NNE,9.2,-,N/A,,Clear,20,2012-11-27 06:35:00
12:55 AM,32.0,24.8,75,30.33,10.0,NNE,6.9,-,N/A,,Clear,20,2012-11-27 06:55:00
1:16 AM,32.0,24.8,75,30.33,10.0,NNE,9.2,-,N/A,,Clear,30,2012-11-27 07:16:00
1:35 AM,30.2,24.8,80,30.33,10.0,NNE,9.2,-,N/A,,Clear,30,2012-11-27 07:35:00
1:55 AM,30.2,24.8,80,30.33,10.0,NNE,6.9,-,N/A,,Clear,20,2012-11-27 07:55:00
2:16 AM,30.2,24.8,80,30.33,10.0,NNE,8.1,-,N/A,,Clear,20,2012-11-27 08:16:00
2:35 AM,30.2,24.8,80,30.33,10.0,NNE,8.1,-,N/A,,Clear,20,2012-11-27 08:35:00
2:55 AM,28.4,24.8,86,30.33,10.0,NNE,9.2,-,N/A,,Clear,20,2012-11-27 08:55:00
3:35 AM,28.4,24.8,86,30.34,10.0,NNE,5.8,-,N/A,,Clear,20,2012-11-27 09:35:00
3:55 AM,28.4,23.0,80,30.34,10.0,North,5.8,-,N/A,,Clear,10,2012-11-27 09:55:00
4:15 AM,26.6,23.0,86,30.33,10.0,NNE,4.6,-,N/A,,Clear,20,2012-11-27 10:15:00
4:35 AM,26.6,23.0,86,30.33,10.0,NNE,4.6,-,N/A,,Clear,20,2012-11-27 10:35:00
4:55 AM,26.6,21.2,80,30.34,10.0,NNE,4.6,-,N/A,,Clear,20,2012-11-27 10:55:00
5:15 AM,26.6,23.0,86,30.35,10.0,North,5.8,-,N/A,,Clear,10,2012-11-27 11:15:00
5:55 AM,26.6,21.2,80,30.35,10.0,NNE,5.8,-,N/A,,Clear,20,2012-11-27 11:55:00
6:35 AM,26.6,21.2,80,30.36,10.0,North,6.9,-,N/A,,Clear,10,2012-11-27 12:35:00
6:55 AM,24.8,21.2,86,30.37,9.0,NNE,6.9,-,N/A,,Clear,30,2012-11-27 12:55:00
7:15 AM,24.8,21.2,86,30.38,8.0,NNE,6.9,-,N/A,,Clear,30,2012-11-27 13:15:00
7:35 AM,26.6,21.2,80,30.39,8.0,NE,5.8,-,N/A,,Clear,40,2012-11-27 13:35:00
7:55 AM,26.6,21.2,80,30.40,8.0,NNE,4.6,-,N/A,,Clear,30,2012-11-27 13:55:00
8:15 AM,26.6,23.0,86,30.40,9.0,ENE,6.9,-,N/A,,Clear,70,2012-11-27 14:15:00
8:35 AM,28.4,21.2,74,30.41,10.0,ENE,8.1,-,N/A,,Clear,60,2012-11-27 14:35:00
9:15 AM,30.2,24.8,80,30.41,10.0,ENE,5.8,-,N/A,,Clear,60,2012-11-27 15:15:00
9:55 AM,33.8,24.8,70,30.44,10.0,NNE,4.6,-,N/A,,Clear,20,2012-11-27 15:55:00
10:15 AM,33.8,24.8,70,30.44,10.0,Calm,Calm,-,N/A,,Clear,0,2012-11-27 16:15:00
10:35 AM,35.6,23.0,60,30.44,10.0,NE,3.5,-,N/A,,Clear,50,2012-11-27 16:35:00
10:56 AM,35.6,24.8,65,30.43,10.0,ENE,3.5,-,N/A,,Clear,60,2012-11-27 16:56:00
11:15 AM,37.4,24.8,60,30.42,10.0,East,4.6,-,N/A,,Clear,80,2012-11-27 17:15:00
11:35 AM,37.4,23.0,56,30.41,10.0,Calm,Calm,-,N/A,,Clear,0,2012-11-27 17:35:00
12:15 PM,39.2,23.0,52,30.38,10.0,Calm,Calm,-,N/A,,Clear,0,2012-11-27 18:15:00
12:35 PM,41.0,21.2,45,30.38,10.0,Calm,Calm,-,N/A,,Clear,0,2012-11-27 18:35:00
1:15 PM,44.6,24.8,46,30.36,10.0,Calm,Calm,-,N/A,,Clear,0,2012-11-27 19:15:00
1:35 PM,44.6,24.8,46,30.35,10.0,WSW,3.5,-,N/A,,Clear,250,2012-11-27 19:35:00
1:55 PM,44.6,24.8,46,30.33,10.0,West,3.5,-,N/A,,Clear,260,2012-11-27 19:55:00
2:16 PM,46.4,23.0,40,30.33,10.0,SW,4.6,-,N/A,,Clear,230,2012-11-27 20:16:00
2:35 PM,46.4,24.8,43,30.32,10.0,SW,4.6,-,N/A,,Clear,220,2012-11-27 20:35:00
2:55 PM,46.4,23.0,40,30.31,10.0,SW,3.5,-,N/A,,Clear,230,2012-11-27 20:55:00
3:35 PM,46.4,24.8,43,30.31,10.0,Calm,Calm,-,N/A,,Clear,0,2012-11-27 21:35:00
3:55 PM,48.2,24.8,40,30.31,10.0,SSW,4.6,-,N/A,,Clear,210,2012-11-27 21:55:00
4:15 PM,46.4,24.8,43,30.30,10.0,South,4.6,-,N/A,,Clear,190,2012-11-27 22:15:00
4:35 PM,46.4,21.2,37,30.30,10.0,Calm,Calm,-,N/A,,Clear,0,2012-11-27 22:35:00
4:55 PM,44.6,23.0,43,30.29,10.0,Calm,Calm,-,N/A,,Clear,0,2012-11-27 22:55:00
5:15 PM,41.0,21.2,45,30.29,10.0,Calm,Calm,-,N/A,,Clear,0,2012-11-27 23:15:00
6:15 PM,37.4,21.2,52,30.30,10.0,Calm,Calm,-,N/A,,Clear,0,2012-11-28 00:15:00
6:55 PM,35.6,21.2,56,30.30,10.0,Calm,Calm,-,N/A,,Clear,0,2012-11-28 00:55:00
7:15 PM,33.8,21.2,60,30.29,10.0,Calm,Calm,-,N/A,,Clear,0,2012-11-28 01:15:00
7:35 PM,35.6,24.8,65,30.30,10.0,SSE,3.5,-,N/A,,Clear,160,2012-11-28 01:35:00
8:15 PM,35.6,24.8,65,30.30,10.0,Calm,Calm,-,N/A,,Clear,0,2012-11-28 02:15:00
8:35 PM,32.0,21.2,64,30.31,10.0,Calm,Calm,-,N/A,,Clear,0,2012-11-28 02:35:00
8:55 PM,32.0,24.8,75,30.31,10.0,Calm,Calm,-,N/A,,Clear,0,2012-11-28 02:55:00
9:15 PM,30.2,23.0,75,30.31,10.0,Calm,Calm,-,N/A,,Clear,0,2012-11-28 03:15:00
9:35 PM,32.0,23.0,69,30.31,10.0,Calm,Calm,-,N/A,,Clear,0,2012-11-28 03:35:00
9:55 PM,30.2,23.0,75,30.31,10.0,Calm,Calm,-,N/A,,Clear,0,2012-11-28 03:55:00
10:55 PM,30.2,23.0,75,30.33,10.0,Calm,Calm,-,N/A,,Clear,0,2012-11-28 04:55:00